RYR11EX LGAV-LGSR

Flight info

Callsign RYR11EX
Flight time N/A
Altitude 15000
Route KEA UL607 NETIS UM601 PEXAN
Aircraft B738/M-SADE3FGHIJ1J7LP2RWXY/SB1D1G1

Departure

Time N/A
Airport Athens Eleftherios Venizelos International Airport (LGAV)

Arrival

Time 2026-05-03 20:26
Airport Santorini International Airport (LGSR)
Time Latitude Longitude Altitude Speed Heading
2026-05-03 20:15 36.58548 25.28077 9512 ft 306 kts 135°
2026-05-03 20:15 36.56928 25.29789 9207 ft 305 kts 135°
2026-05-03 20:15 36.55318 25.31495 8917 ft 304 kts 135°
2026-05-03 20:15 36.53715 25.33194 8642 ft 302 kts 136°
2026-05-03 20:16 36.52113 25.34893 8301 ft 303 kts 136°
2026-05-03 20:16 36.50511 25.36592 8000 ft 302 kts 136°
2026-05-03 20:16 36.48914 25.38284 7692 ft 302 kts 136°
2026-05-03 20:16 36.47319 25.39974 7414 ft 301 kts 135°
2026-05-03 20:17 36.45724 25.41664 7130 ft 302 kts 135°
2026-05-03 20:17 36.44121 25.43362 6813 ft 303 kts 135°
2026-05-03 20:17 36.42520 25.45053 6550 ft 302 kts 135°
2026-05-03 20:17 36.40923 25.46740 6274 ft 300 kts 135°
2026-05-03 20:18 36.39371 25.48450 6028 ft 295 kts 127°
2026-05-03 20:18 36.38226 25.50489 5827 ft 284 kts 114°
2026-05-03 20:18 36.37228 25.52578 5672 ft 278 kts 114°
2026-05-03 20:18 36.36242 25.54610 5543 ft 272 kts 115°
2026-05-03 20:19 36.35262 25.56586 5441 ft 265 kts 115°
2026-05-03 20:19 36.34300 25.58500 5335 ft 258 kts 115°
2026-05-03 20:19 36.33358 25.60363 5220 ft 252 kts 115°
2026-05-03 20:19 36.32435 25.62184 5034 ft 249 kts 115°
2026-05-03 20:20 36.31237 25.63765 4746 ft 260 kts 149°
2026-05-03 20:20 36.29506 25.64252 4476 ft 255 kts 189°
2026-05-03 20:20 36.27910 25.63529 4121 ft 238 kts 225°
2026-05-03 20:20 36.26915 25.62030 3841 ft 217 kts 256°
2026-05-03 20:21 36.26601 25.60315 3592 ft 194 kts 282°
2026-05-03 20:21 36.26856 25.58780 3368 ft 174 kts 302°
2026-05-03 20:21 36.27440 25.57541 3132 ft 160 kts 316°
2026-05-03 20:21 36.28168 25.56544 2898 ft 152 kts 324°
2026-05-03 20:22 36.29025 25.55885 2720 ft 142 kts 335°
2026-05-03 20:22 36.29899 25.55278 2504 ft 144 kts 334°
2026-05-03 20:22 36.30751 25.54675 2280 ft 141 kts 334°
2026-05-03 20:22 36.31590 25.54075 2079 ft 137 kts 333°
2026-05-03 20:23 36.32379 25.53504 1893 ft 126 kts 333°
2026-05-03 20:23 36.33118 25.52966 1746 ft 122 kts 333°
2026-05-03 20:23 36.33788 25.52477 1595 ft 105 kts 333°
2026-05-03 20:23 36.34421 25.51986 1399 ft 111 kts 331°
2026-05-03 20:24 36.35067 25.51453 1174 ft 113 kts 330°
2026-05-03 20:24 36.35731 25.50898 886 ft 118 kts 328°
2026-05-03 20:24 36.36404 25.50305 671 ft 119 kts 325°
2026-05-03 20:24 36.37060 25.49711 491 ft 115 kts 323°
2026-05-03 20:25 36.37740 25.49097 318 ft 125 kts 326°
2026-05-03 20:25 36.38526 25.48580 176 ft 129 kts 334°
2026-05-03 20:25 36.39329 25.48193 63 ft 116 kts 336°
2026-05-03 20:25 36.39914 25.47916 82 ft 59 kts 339°
2026-05-03 20:26 36.40178 25.47793 87 ft 29 kts 339°
2026-05-03 20:26 36.40294 25.47736 90 ft 11 kts 337°
2026-05-03 20:26 36.40317 25.47685 89 ft 6 kts 260°
2026-05-03 20:26 36.40302 25.47636 90 ft 6 kts 249°
2026-05-03 20:27 36.40294 25.47587 90 ft 6 kts 285°
2026-05-03 20:27 36.40325 25.47556 88 ft 6 kts 335°
2026-05-03 20:27 36.40364 25.47536 89 ft 6 kts 339°
2026-05-03 20:27 36.40408 25.47516 90 ft 8 kts 338°
2026-05-03 20:28 36.40419 25.47459 91 ft 8 kts 250°
2026-05-03 20:28 36.40392 25.47396 91 ft 8 kts 249°
2026-05-03 20:28 36.40383 25.47365 90 ft 0 kts 249°